• Processing (Info)

  • MPEC 2012-G06 : 2012 FS62

    The following Minor Planet Electronic Circular may be linked-to from your own Web pages, but must not otherwise be redistributed electronically.

    A form allowing access to any MPEC is at the bottom of this page.


    Read MPEC 2012-G05 Read MPEC 2012-G07


    M.P.E.C. 2012-G06                                Issued 2012 Apr. 1, 03:16 UT
    
         The Minor Planet Electronic Circulars contain information on unusual
             minor planets and routine data on comets.  They are published
       on behalf of Commission 20 of the International Astronomical Union by the
              Minor Planet Center, Smithsonian Astrophysical Observatory,
                              Cambridge, MA 02138, U.S.A.
    
                 Prepared using the Tamkin Foundation Computer Network
    
                                  MPC@CFA.HARVARD.EDU
                URL https://www.minorplanetcenter.net/    ISSN 1523-6714
    
                                       2012 FS62
    
    Observations:
         K12F62S* C2012 03 29.46610 14 07 19.543-00 22 01.90         21.5 wLEG006F51
         K12F62S  C2012 03 29.48042 14 07 17.908-00 21 59.08         21.2 wLEG006F51
         K12F62S  C2012 03 29.49486 14 07 16.252-00 21 55.99         21.4 wLEG006F51
         K12F62S  C2012 03 30.33750 14 05 42.65 -00 19 03.4                cEG006926
         K12F62S  C2012 03 30.33918 14 05 42.39 -00 19 01.5                cEG006926
         K12F62S  C2012 03 30.34734 14 05 41.70 -00 18 52.2                cEG006926
         K12F62S  C2012 03 30.34899 14 05 41.49 -00 18 49.2                cEG006926
         K12F62S  C2012 03 31.35317 14 03 45.54 -00 15 34.6          20.8 VrEG006G96
         K12F62S  C2012 03 31.35837 14 03 44.92 -00 15 33.8          21.1 VrEG006G96
         K12F62S  C2012 03 31.36360 14 03 44.28 -00 15 32.4          20.9 VrEG006G96
         K12F62S  C2012 03 31.36888 14 03 43.63 -00 15 31.0          21.0 VrEG006G96
         K12F62S 0C2012 03 31.76878314 02 55.81 -00 13 54.9          20.9 RoEG006E10
         K12F62S 0C2012 03 31.77080814 02 55.57 -00 13 54.3          21.2 RoEG006E10
         K12F62S 0C2012 03 31.77278014 02 55.33 -00 13 54.1          21.1 RoEG006E10
         K12F62S 0C2012 03 31.77475614 02 55.09 -00 13 53.6          20.9 RoEG006E10
         K12F62S 0C2012 03 31.77677614 02 54.83 -00 13 53.1          21.2 RoEG006E10
    
    Observer details:
    926 Tenagra II Observatory.  Observers S. Abe, J. K. Guo, N. Panwar,
        W. P. Chen, W. H. Ip.  Measurer S. Abe.  0.81-m f/7 Ritchey-Chretien + CCD.
    E10 Siding Spring-Faulkes Telescope South.  Observer T. Lister.  2.0-m f/10
        Ritchey-Chretien + CCD.
    F51 Pan-STARRS 1, Haleakala.  Observers N. Primak, A. Schultz, S. Watters,
        J. Thiel, T. Goggia.  Measurer PS1 Science Consortium.  1.8-m
        Ritchey-Chretien + CCD.
    G96 Mt. Lemmon Survey.  Observer A. Boattini.  Measurers J. D. Ahern,
        E. C. Beshore, A. Boattini, A. R. Gibbs, A. D. Grauer, R. E. Hill,
        R. A. Kowalski, S. M. Larson, R. H. McNaught.  1.5-m reflector + CCD.
    
    Orbital elements:
    2012 FS62                                                Earth MOID = 0.1243 AU
    Epoch 2012 Mar. 14.0 TT = JDT 2456000.5                 MPC
    M 224.18208              (2000.0)            P               Q
    n   0.71357129     Peri.  313.44467     +0.97283282     +0.18031311
    a   1.2402554      Node    36.88074     -0.06848198     +0.82326180
    e   0.4143812      Incl.   14.00116     -0.22114820     +0.53826312
    P   1.38           H   20.4           G   0.15           U   9
    Residuals in seconds of arc
    120329 F51  0.1-  0.4-    120330 926 (3.3+ 12.2+)   120331 E10  0.0-  0.0+
    120329 F51  0.0+  0.5-    120331 G96  0.0-  0.2-    120331 E10  0.0-  0.2-
    120329 F51  0.0-  0.4-    120331 G96  0.2+  0.4-    120331 E10  0.0+  0.1-
    120330 926  0.4+  0.4+    120331 G96  0.2+  0.1-    120331 E10  0.2-  0.0-
    120330 926  0.5-  1.9+    120331 G96  0.1+  0.2+
    120330 926 (3.6+  9.6+)   120331 E10  0.2-  0.2-
    
    Ephemeris:
    2012 FS62                a,e,i = 1.24, 0.41, 14                  q = 0.7263
    Date    TT    R. A. (2000) Decl.     Delta      r     Elong.  Phase     V
    2012 03 02    14 31 37.7 -01 26 57   0.9336  1.7044   124.6    28.6    22.7
    ...
    2012 03 17    14 24 29.1 -01 01 10   0.7763  1.6699   140.7    22.2    22.0
    ...
    2012 03 25    14 14 45.0 -00 37 05   0.7048  1.6477   150.5    17.3    21.6
    ...
    2012 03 31    14 04 26.7 -00 16 40   0.6589  1.6293   158.2    13.1    21.3
    2012 04 01    14 02 28.8 -00 13 14   0.6520  1.6261   159.5    12.4    21.3
    2012 04 02    14 00 26.8 -00 09 50   0.6453  1.6229   160.8    11.7    21.2
    ...
    2012 04 08    13 46 53.3 +00 09 32   0.6099  1.6025   167.8     7.6    20.9
    ...
    2012 04 16    13 25 50.6 +00 28 40   0.5762  1.5731   169.0     7.0    20.7
    ...
    2012 05 01    12 43 44.9 +00 22 02   0.5561  1.5107   148.7    20.2    21.0
    
    A. U. Tomatic                (C) Copyright 2012 MPC           M.P.E.C. 2012-G06
    

    Read MPEC 2012-G05 Read MPEC 2012-G07


    MPEC number:

    Enter an MPEC number in one of the following forms:

    • 1997-B01 (the full form)
    • J97B01 (the packed version of the full form)
    • B01 (the abbreviated form)